This is the latest recevied weather packets stored in our database for station/object SQ6XL-13. If no packets are shown the sender has not sent any weather packets the latest 10 day(s).
| Time | Temp. | Humidity | Pressure | Rain* | Wind** | Luminosity | Snow |
|---|---|---|---|---|---|---|---|
| 1787478970 | 17.22° C | 69% | 1022.1 hPa | 0 mm | - | - | - |
| 1787478484 | 17.22° C | 71% | 1022.2 hPa | 0 mm | - | - | - |
| 1787477890 | 16.67° C | 71% | 1022.2 hPa | 0 mm | - | - | - |
| 1787477395 | 17.22° C | 70% | 1022.2 hPa | 0 mm | - | - | - |
| 1787476905 | 17.22° C | 70% | 1022.1 hPa | 0 mm | - | - | - |
| 1787476400 | 17.22° C | 70% | 1022.1 hPa | 0 mm | - | - | - |
| 1787475824 | 17.22° C | 69% | 1022.1 hPa | 0 mm | - | - | - |
| 1787475240 | 17.22° C | 69% | 1022.1 hPa | 0 mm | - | - | - |
| 1787474755 | 17.22° C | 68% | 1022.1 hPa | 0 mm | - | - | - |
| 1787474170 | 17.22° C | 71% | 1021.9 hPa | 0 mm | - | - | - |
| 1787473610 | 16.67° C | 72% | 1022 hPa | 0 mm | - | - | - |
| 1787473020 | 16.67° C | 73% | 1022 hPa | 0.51 mm | - | - | - |
| 1787472530 | 16.67° C | 73% | 1022 hPa | 0 mm | - | - | - |
| 1787471980 | 16.11° C | 74% | 1021.9 hPa | 0 mm | - | - | - |
| 1787471470 | 16.11° C | 75% | 1021.8 hPa | 0 mm | - | - | - |
| 1787470972 | 16.11° C | 74% | 1021.8 hPa | 0 mm | - | - | - |
| 1787470405 | 16.11° C | 77% | 1021.9 hPa | 0 mm | - | - | - |
| 1787469896 | 15.56° C | 78% | 1021.8 hPa | 0 mm | - | - | - |
| 1787469300 | 15.56° C | 78% | 1021.7 hPa | 0 mm | - | - | - |
| 1787468795 | 15.56° C | 79% | 1021.8 hPa | 0 mm | - | - | - |
| 1787468300 | 15.56° C | 79% | 1021.8 hPa | 0 mm | - | - | - |
| 1787467730 | 15° C | 83% | 1021.8 hPa | 0 mm | - | - | - |
| 1787467164 | 14.44° C | 84% | 1021.9 hPa | 0 mm | - | - | - |
| 1787466650 | 14.44° C | 84% | 1021.7 hPa | 0 mm | - | - | - |
| 1787466055 | 13.89° C | 90% | 1021.8 hPa | 0 mm | - | - | - |
* Rain latest hour (hover to see other rain measurements)
** Current wind speed in m/s (hover to see current wind gust speed)